Date String (YYYY-MM-DD hh:mm:ss) UTC,Instrument flags,Ambient pressure (hPa),Sample flow (lpm),Bypass flow (lpm),Sample temperature (°C),Ambient temperature (°C),ASC tube jacket temperature (°C),LED temperature (°C),Box temperature (°C),Sample RH (%),Span deviation,Mass concentration (μg/m³),Mass concentration (μg/m³),Mass concentration (μg/m³)
DateTimeUTC,F1_M11,P_M11,Q1_M11,Q2_M11,T1_M11,T2_M11,T3_M11,T4_M11,T5_M11,U1_M11,ZSPAN_M11,X0_M11,X2_M11,X1_M11
2023-05-01 06:00:00,,0829.1,5.01,0.00,28.9,26.9,00.0,37.6,30.3,13.6,0000.0,0013.76,0004.71,0003.29
2023-05-01 06:01:00,,0829.1,5.00,0.00,28.9,26.9,00.0,37.6,30.3,13.7,0000.0,0013.79,0004.69,0003.28
2023-05-01 06:02:00,,0829.1,5.00,0.00,28.9,27.0,00.0,37.6,30.3,13.7,0000.0,0013.40,0004.71,0003.26
2023-05-01 06:03:00,,0829.1,4.99,0.00,28.9,26.9,00.0,37.5,30.2,13.6,0000.0,0013.62,0004.74,0003.26
2023-05-01 06:04:00,,0829.1,5.00,0.00,28.8,26.8,00.0,37.5,30.2,13.7,0000.0,0013.96,0004.76,0003.25
2023-05-01 06:05:00,,0829.1,4.99,0.00,28.8,26.8,00.0,37.5,30.2,13.9,0000.0,0015.43,0004.76,0003.26
2023-05-01 06:06:00,,0829.1,5.00,0.00,28.7,26.7,00.0,37.5,30.1,14.1,0000.0,0016.11,0004.79,0003.26
2023-05-01 06:07:00,,0829.1,5.01,0.00,28.7,26.7,00.0,37.4,30.1,14.0,0000.0,0014.64,0004.76,0003.26
2023-05-01 06:08:00,,0829.1,4.99,0.00,28.7,26.6,00.0,37.4,30.1,13.9,0000.0,0014.53,0004.75,0003.27
2023-05-01 06:09:00,,0829.1,4.99,0.00,28.6,26.6,00.0,37.3,30.0,13.9,0000.0,0014.69,0004.75,0003.28
2023-05-01 06:10:00,,0829.1,5.01,0.00,28.6,26.6,00.0,37.3,30.0,13.8,0000.0,0014.71,0004.76,0003.28
2023-05-01 06:11:00,,0829.0,5.00,0.00,28.6,26.6,00.0,37.3,30.0,13.8,0000.0,0013.99,0004.74,0003.26
2023-05-01 06:12:00,,0829.0,4.99,0.00,28.6,26.6,00.0,37.3,30.0,13.8,0000.0,0013.88,0004.72,0003.26
2023-05-01 06:13:00,,0829.0,4.99,0.00,28.5,26.6,00.0,37.2,30.0,13.8,0000.0,0014.04,0004.74,0003.26
2023-05-01 06:14:00,,0829.0,4.99,0.00,28.5,26.6,00.0,37.2,29.9,13.9,0000.0,0014.41,0004.75,0003.26
2023-05-01 06:15:00,,0829.0,5.00,0.00,28.5,26.5,00.0,37.2,29.9,14.0,0000.0,0014.49,0004.72,0003.27
2023-05-01 06:16:00,,0828.9,5.01,0.00,28.5,26.5,00.0,37.1,29.9,14.1,0000.0,0013.11,0004.75,0003.26
2023-05-01 06:17:00,,0828.9,5.00,0.00,28.4,26.5,00.0,37.1,29.9,14.1,0000.0,0012.38,0004.73,0003.26
2023-05-01 06:18:00,,0829.0,5.00,0.00,28.4,26.5,00.0,37.1,29.8,14.1,0000.0,0013.00,0004.75,0003.26
2023-05-01 06:19:00,,0829.0,4.99,0.00,28.4,26.5,00.0,37.0,29.8,14.0,0000.0,0013.65,0004.75,0003.25
2023-05-01 06:20:00,,0829.0,5.00,0.00,28.3,26.4,00.0,37.0,29.8,14.0,0000.0,0014.12,0004.68,0003.23
2023-05-01 06:21:00,,0829.0,4.99,0.00,28.3,26.4,00.0,37.0,29.7,14.0,0000.0,0014.26,0004.67,0003.22
2023-05-01 06:22:00,,0829.0,5.01,0.00,28.3,26.4,00.0,37.0,29.8,13.9,0000.0,0014.63,0004.72,0003.23
2023-05-01 06:23:00,,0829.0,5.00,0.00,28.3,26.4,00.0,36.9,29.7,14.0,0000.0,0014.89,0004.72,0003.23
2023-05-01 06:24:00,,0829.0,4.99,0.00,28.3,26.4,00.0,36.9,29.7,13.9,0000.0,0015.26,0004.69,0003.23
2023-05-01 06:25:00,,0829.0,5.01,0.00,28.2,26.3,00.0,36.9,29.6,13.9,0000.0,0014.63,0004.64,0003.22
2023-05-01 06:26:00,,0829.0,5.02,0.00,28.2,26.3,00.0,36.9,29.6,13.9,0000.0,0014.25,0004.65,0003.21
2023-05-01 06:27:00,,0829.0,5.01,0.00,28.2,26.3,00.0,36.8,29.6,13.9,0000.0,0014.25,0004.64,0003.19
2023-05-01 06:28:00,,0829.0,5.00,0.00,28.2,26.3,00.0,36.8,29.6,14.0,0000.0,0014.27,0004.60,0003.17
2023-05-01 06:29:00,,0829.0,5.00,0.00,28.1,26.3,00.0,36.8,29.6,14.0,0000.0,0014.06,0004.55,0003.16
2023-05-01 06:30:00,,0828.9,4.99,0.00,28.1,26.3,00.0,36.8,29.6,13.9,0000.0,0013.50,0004.52,0003.16
2023-05-01 06:31:00,,0828.9,5.01,0.00,28.1,26.3,00.0,36.7,29.5,14.0,0000.0,0012.95,0004.54,0003.16
2023-05-01 06:32:00,,0829.0,5.00,0.00,28.1,26.3,00.0,36.7,29.5,13.9,0000.0,0012.42,0004.47,0003.16
2023-05-01 06:33:00,,0828.9,5.00,0.00,28.1,26.2,00.0,36.7,29.5,13.9,0000.0,0011.85,0004.39,0003.15
2023-05-01 06:34:00,,0828.9,4.99,0.00,28.1,26.2,00.0,36.7,29.5,13.8,0000.0,0011.64,0004.37,0003.13
2023-05-01 06:35:00,,0828.9,5.00,0.00,28.0,26.2,00.0,36.7,29.5,13.8,0000.0,0011.47,0004.36,0003.11
2023-05-01 06:36:00,,0828.9,5.00,0.00,28.0,26.2,00.0,36.6,29.5,13.9,0000.0,0011.78,0004.38,0003.11
2023-05-01 06:37:00,,0828.8,5.00,0.00,28.0,26.2,00.0,36.6,29.5,13.9,0000.0,0011.90,0004.37,0003.11
2023-05-01 06:38:00,,0828.8,5.01,0.00,28.0,26.1,00.0,36.6,29.4,14.0,0000.0,0012.08,0004.38,0003.10
2023-05-01 06:39:00,,0828.8,4.99,0.00,28.0,26.1,00.0,36.6,29.4,13.9,0000.0,0012.22,0004.44,0003.09
2023-05-01 06:40:00,,0828.8,4.99,0.00,27.9,26.0,00.0,36.6,29.4,13.9,0000.0,0011.88,0004.44,0003.09
2023-05-01 06:41:00,,0828.7,5.01,0.00,27.9,26.0,00.0,36.5,29.4,13.9,0000.0,0011.96,0004.48,0003.07
2023-05-01 06:42:00,,0828.8,5.01,0.00,27.9,25.9,00.0,36.5,29.3,13.9,0000.0,0011.66,0004.46,0003.05
2023-05-01 06:43:00,,0828.8,5.00,0.00,27.9,25.9,00.0,36.5,29.3,14.0,0000.0,0011.95,0004.46,0003.06
2023-05-01 06:44:00,,0828.8,5.00,0.00,27.8,25.9,00.0,36.5,29.3,14.0,0000.0,0012.12,0004.45,0003.05
2023-05-01 06:45:00,,0828.7,5.00,0.00,27.8,25.9,00.0,36.4,29.3,14.1,0000.0,0012.25,0004.40,0003.05
2023-05-01 06:46:00,,0828.7,4.99,0.00,27.8,25.8,00.0,36.4,29.3,14.1,0000.0,0011.93,0004.35,0003.03
2023-05-01 06:47:00,,0828.7,5.01,0.00,27.8,25.8,00.0,36.4,29.2,14.1,0000.0,0011.54,0004.40,0003.04
2023-05-01 06:48:00,,0828.7,5.00,0.00,27.8,25.8,00.0,36.4,29.2,14.1,0000.0,0011.76,0004.38,0003.03
2023-05-01 06:49:00,,0828.7,5.00,0.00,27.7,25.8,00.0,36.4,29.2,14.0,0000.0,0012.13,0004.35,0003.01
2023-05-01 06:50:00,,0828.7,5.00,0.00,27.7,25.8,00.0,36.3,29.2,13.9,0000.0,0012.76,0004.28,0003.02
2023-05-01 06:51:00,,0828.7,4.99,0.00,27.7,25.8,00.0,36.3,29.2,13.9,0000.0,0012.65,0004.25,0003.01
2023-05-01 06:52:00,,0828.7,4.99,0.00,27.7,25.8,00.0,36.3,29.2,13.8,0000.0,0012.22,0004.22,0002.99
2023-05-01 06:53:00,,0828.7,5.01,0.00,27.7,25.8,00.0,36.3,29.2,13.8,0000.0,0012.48,0004.28,0002.99
2023-05-01 06:54:00,,0828.7,5.00,0.00,27.7,25.8,00.0,36.3,29.2,13.8,0000.0,0012.56,0004.26,0002.97
2023-05-01 06:55:00,,0828.7,5.00,0.00,27.7,25.8,00.0,36.2,29.2,13.7,0000.0,0012.66,0004.26,0002.96
2023-05-01 06:56:00,,0828.6,5.01,0.00,27.6,25.7,00.0,36.2,29.2,13.8,0000.0,0012.74,0004.31,0002.96
2023-05-01 06:57:00,,0828.6,5.01,0.00,27.6,25.7,00.0,36.2,29.2,13.8,0000.0,0012.71,0004.32,0002.96
2023-05-01 06:58:00,,0828.6,5.01,0.00,27.6,25.7,00.0,36.2,29.2,13.8,0000.0,0012.69,0004.26,0002.94
2023-05-01 06:59:00,,0828.6,4.99,0.00,27.6,25.7,00.0,36.2,29.1,13.9,0000.0,0012.59,0004.24,0002.93
